| time (UTC) | temp F | wind direction | speed knots | gust knots | rain 1hr in | rain 24hr in | rain mn in | humidity % | barometer mb |
| 20260505041704 | 72 | 115 | 0.0 | 1.7 | 0.00 | 0.00 | 0.00 | 69 | 1003.7 |
| 20260505041604 | 72 | 115 | 0.9 | 1.7 | 0.00 | 0.00 | 0.00 | 68 | 1003.6 |
| 20260505041504 | 72 | 115 | 0.9 | 1.7 | 0.00 | 0.00 | 0.00 | 69 | 1003.8 |
| 20260505041404 | 72 | 115 | 0.9 | 1.7 | 0.00 | 0.00 | 0.00 | 69 | 1003.7 |
| 20260505041304 | 72 | 115 | 0.9 | 1.7 | 0.00 | 0.00 | 0.00 | 69 | 1003.7 |
| 20260505041204 | 72 | 120 | 0.9 | 1.7 | 0.00 | 0.00 | 0.00 | 69 | 1003.7 |
| 20260505041104 | 72 | 136 | 0.0 | 2.6 | 0.00 | 0.00 | 0.00 | 69 | 1003.7 |
| 20260505040904 | 72 | 143 | 0.0 | 2.6 | 0.00 | 0.00 | 0.00 | 68 | 1003.7 |
| 20260505040804 | 72 | 148 | 0.0 | 2.6 | 0.00 | 0.00 | 0.00 | 68 | 1003.7 |
| 20260505040704 | 72 | 147 | 0.0 | 2.6 | 0.00 | 0.00 | 0.00 | 68 | 1003.7 |
| 20260505040504 | 72 | 159 | 0.0 | 2.6 | 0.00 | 0.00 | 0.00 | 68 | 1003.7 |
| 20260505040404 | 72 | 159 | 0.0 | 2.6 | 0.00 | 0.00 | 0.00 | 68 | 1003.8 |
| 20260505040304 | 72 | 159 | 0.0 | 2.6 | 0.00 | 0.00 | 0.00 | 68 | 1003.8 |
| 20260505040204 | 72 | 148 | 0.0 | 2.6 | 0.00 | 0.00 | 0.00 | 68 | 1003.8 |
| 20260505040104 | 72 | 131 | 0.0 | 0.9 | 0.00 | 0.00 | 0.00 | 68 | 1003.7 |
| 20260505040005 | 72 | 128 | 0.0 | 1.7 | 0.00 | 0.00 | 0.00 | 68 | 1003.8 |
| 20260505035904 | 72 | 122 | 0.0 | 1.7 | 0.00 | 0.00 | 0.00 | 68 | 1003.7 |
| 20260505035705 | 72 | 116 | 0.9 | 2.6 | 0.00 | 0.00 | 0.00 | 68 | 1003.8 |
| 20260505035605 | 72 | 116 | 0.9 | 2.6 | 0.00 | 0.00 | 0.00 | 68 | 1003.7 |
| 20260505035505 | 72 | 118 | 0.9 | 2.6 | 0.00 | 0.00 | 0.00 | 68 | 1003.8 |
| 20260505035405 | 72 | 108 | 0.9 | 6.1 | 0.00 | 0.00 | 0.00 | 68 | 1003.7 |
| 20260505035304 | 72 | 109 | 0.9 | 6.1 | 0.00 | 0.00 | 0.00 | 67 | 1003.7 |
| 20260505035204 | 72 | 109 | 0.9 | 6.1 | 0.00 | 0.00 | 0.00 | 67 | 1003.7 |
| 20260505035004 | 72 | 110 | 0.9 | 6.1 | 0.00 | 0.00 | 0.00 | 67 | 1003.6 |
| 20260505034904 | 72 | 110 | 0.9 | 6.1 | 0.00 | 0.00 | 0.00 | 67 | 1003.6 |
| 20260505034805 | 73 | 110 | 0.9 | 6.1 | 0.00 | 0.00 | 0.00 | 67 | 1003.7 |
| 20260505034705 | 73 | 108 | 0.9 | 6.1 | 0.00 | 0.00 | 0.00 | 67 | 1003.7 |
| 20260505034604 | 73 | 106 | 0.9 | 7.0 | 0.00 | 0.00 | 0.00 | 67 | 1003.7 |
| 20260505034504 | 73 | 105 | 0.9 | 7.0 | 0.00 | 0.00 | 0.00 | 67 | 1003.6 |
| 20260505034404 | 73 | 109 | 0.9 | 7.0 | 0.00 | 0.00 | 0.00 | 66 | 1003.6 |
| 20260505034204 | 73 | 108 | 0.9 | 7.0 | 0.00 | 0.00 | 0.00 | 66 | 1003.6 |
| 20260505034104 | 73 | 108 | 0.9 | 7.0 | 0.00 | 0.00 | 0.00 | 66 | 1003.6 |
| 20260505034005 | 73 | 108 | 1.7 | 7.0 | 0.00 | 0.00 | 0.00 | 66 | 1003.6 |
| 20260505033905 | 73 | 110 | 1.7 | 7.0 | 0.00 | 0.00 | 0.00 | 66 | 1003.6 |
| 20260505033805 | 73 | 110 | 1.7 | 7.0 | 0.00 | 0.00 | 0.00 | 66 | 1003.6 |
| 20260505033705 | 73 | 112 | 0.9 | 7.0 | 0.00 | 0.00 | 0.00 | 66 | 1003.7 |
| 20260505033604 | 73 | 115 | 0.9 | 4.3 | 0.00 | 0.00 | 0.00 | 66 | 1003.7 |
| 20260505033504 | 73 | 113 | 0.9 | 4.3 | 0.00 | 0.00 | 0.00 | 66 | 1003.7 |
| 20260505033404 | 73 | 115 | 0.9 | 3.5 | 0.00 | 0.00 | 0.00 | 66 | 1003.7 |
| 20260505033304 | 73 | 118 | 0.9 | 3.5 | 0.00 | 0.00 | 0.00 | 65 | 1003.7 |
| 20260505033204 | 73 | 119 | 0.9 | 3.5 | 0.00 | 0.00 | 0.00 | 65 | 1003.7 |
| 20260505033104 | 73 | 119 | 0.9 | 3.5 | 0.00 | 0.00 | 0.00 | 65 | 1003.8 |
| 20260505032905 | 73 | 118 | 0.9 | 3.5 | 0.00 | 0.00 | 0.00 | 65 | 1003.8 |
| 20260505032805 | 73 | 119 | 1.7 | 3.5 | 0.00 | 0.00 | 0.00 | 65 | 1003.8 |
| 20260505032705 | 73 | 119 | 1.7 | 3.5 | 0.00 | 0.00 | 0.00 | 65 | 1003.9 |
| 20260505032605 | 74 | 118 | 1.7 | 7.0 | 0.00 | 0.00 | 0.00 | 65 | 1003.9 |
| 20260505032504 | 74 | 121 | 1.7 | 7.0 | 0.00 | 0.00 | 0.00 | 65 | 1003.9 |
| 20260505032404 | 74 | 120 | 1.7 | 7.0 | 0.00 | 0.00 | 0.00 | 65 | 1003.9 |
| 20260505032305 | 74 | 120 | 1.7 | 7.0 | 0.00 | 0.00 | 0.00 | 65 | 1004.0 |
| 20260505032205 | 74 | 120 | 1.7 | 7.0 | 0.00 | 0.00 | 0.00 | 65 | 1004.1 |
| 20260505032105 | 74 | 121 | 1.7 | 7.0 | 0.00 | 0.00 | 0.00 | 64 | 1004.1 |
| 20260505032004 | 74 | 121 | 1.7 | 7.0 | 0.00 | 0.00 | 0.00 | 64 | 1004.1 |
| 20260505031904 | 74 | 120 | 1.7 | 7.0 | 0.00 | 0.00 | 0.00 | 64 | 1004.0 |
| 20260505031804 | 74 | 118 | 1.7 | 7.0 | 0.00 | 0.00 | 0.00 | 64 | 1003.9 |
| 20260505031704 | 74 | 115 | 1.7 | 7.8 | 0.00 | 0.00 | 0.00 | 64 | 1004.0 |
| 20260505031505 | 74 | 113 | 1.7 | 7.8 | 0.00 | 0.00 | 0.00 | 64 | 1004.0 |
| 20260505031405 | 74 | 113 | 1.7 | 7.8 | 0.00 | 0.00 | 0.00 | 64 | 1003.9 |
| 20260505031305 | 74 | 113 | 1.7 | 7.8 | 0.00 | 0.00 | 0.00 | 64 | 1003.8 |
| 20260505031204 | 74 | 112 | 1.7 | 7.8 | 0.00 | 0.00 | 0.00 | 64 | 1003.8 |
| 20260505031105 | 74 | 110 | 1.7 | 7.8 | 0.00 | 0.00 | 0.00 | 64 | 1003.7 |
| 20260505031004 | 74 | 111 | 1.7 | 7.8 | 0.00 | 0.00 | 0.00 | 64 | 1003.7 |
| 20260505030904 | 74 | 111 | 1.7 | 7.8 | 0.00 | 0.00 | 0.00 | 64 | 1003.7 |
| 20260505030804 | 74 | 110 | 1.7 | 7.8 | 0.00 | 0.00 | 0.00 | 64 | 1003.8 |
| 20260505030604 | 74 | 108 | 1.7 | 7.8 | 0.00 | 0.00 | 0.00 | 63 | 1003.8 |
| 20260505030505 | 74 | 107 | 2.6 | 7.8 | 0.00 | 0.00 | 0.00 | 63 | 1003.8 |
| 20260505030305 | 74 | 106 | 1.7 | 7.8 | 0.00 | 0.00 | 0.00 | 63 | 1003.8 |
| 20260505030004 | 74 | 105 | 1.7 | 7.8 | 0.00 | 0.00 | 0.00 | 63 | 1003.7 |
| 20260505025904 | 74 | 104 | 1.7 | 7.8 | 0.00 | 0.00 | 0.00 | 63 | 1003.7 |
| 20260505025804 | 74 | 105 | 1.7 | 7.8 | 0.00 | 0.00 | 0.00 | 63 | 1003.8 |
| 20260505025604 | 74 | 111 | 1.7 | 4.3 | 0.00 | 0.00 | 0.00 | 63 | 1003.8 |
| 20260505025504 | 74 | 114 | 0.9 | 4.3 | 0.00 | 0.00 | 0.00 | 62 | 1003.8 |
| 20260505025404 | 74 | 115 | 1.7 | 4.3 | 0.00 | 0.00 | 0.00 | 62 | 1003.8 |
| 20260505025305 | 74 | 117 | 1.7 | 4.3 | 0.00 | 0.00 | 0.00 | 62 | 1003.8 |
| 20260505025204 | 74 | 117 | 1.7 | 4.3 | 0.00 | 0.00 | 0.00 | 62 | 1003.9 |
| 20260505025004 | 74 | 121 | 1.7 | 4.3 | 0.00 | 0.00 | 0.00 | 62 | 1003.9 |
| 20260505024904 | 74 | 123 | 1.7 | 3.5 | 0.00 | 0.00 | 0.00 | 62 | 1003.9 |
| 20260505024804 | 74 | 122 | 1.7 | 3.5 | 0.00 | 0.00 | 0.00 | 62 | 1003.8 |
| 20260505024704 | 74 | 122 | 1.7 | 3.5 | 0.00 | 0.00 | 0.00 | 62 | 1003.8 |
| 20260505024604 | 74 | 122 | 1.7 | 3.5 | 0.00 | 0.00 | 0.00 | 62 | 1003.9 |
| 20260505024504 | 74 | 122 | 1.7 | 3.5 | 0.00 | 0.00 | 0.00 | 62 | 1003.8 |
| 20260505024404 | 74 | 121 | 1.7 | 3.5 | 0.00 | 0.00 | 0.00 | 61 | 1003.8 |
| 20260505024304 | 74 | 120 | 1.7 | 3.5 | 0.00 | 0.00 | 0.00 | 61 | 1003.8 |
| 20260505024204 | 74 | 121 | 1.7 | 3.5 | 0.00 | 0.00 | 0.00 | 61 | 1003.7 |
| 20260505024104 | 74 | 123 | 1.7 | 3.5 | 0.00 | 0.00 | 0.00 | 61 | 1003.7 |
| 20260505024004 | 74 | 122 | 1.7 | 3.5 | 0.00 | 0.00 | 0.00 | 61 | 1003.6 |
| 20260505023904 | 74 | 123 | 1.7 | 3.5 | 0.00 | 0.00 | 0.00 | 61 | 1003.6 |
| 20260505023704 | 74 | 124 | 1.7 | 3.5 | 0.00 | 0.00 | 0.00 | 61 | 1003.5 |
| 20260505023604 | 74 | 126 | 1.7 | 3.5 | 0.00 | 0.00 | 0.00 | 61 | 1003.5 |
| 20260505023504 | 74 | 127 | 1.7 | 3.5 | 0.00 | 0.00 | 0.00 | 61 | 1003.5 |
| 20260505023404 | 74 | 128 | 1.7 | 3.5 | 0.00 | 0.00 | 0.00 | 61 | 1003.4 |
| 20260505023304 | 74 | 129 | 1.7 | 2.6 | 0.00 | 0.00 | 0.00 | 61 | 1003.4 |
| 20260505023204 | 74 | 130 | 0.9 | 2.6 | 0.00 | 0.00 | 0.00 | 61 | 1003.5 |
| 20260505023004 | 74 | 129 | 0.9 | 2.6 | 0.00 | 0.00 | 0.00 | 61 | 1003.5 |
| 20260505022904 | 74 | 129 | 0.9 | 2.6 | 0.00 | 0.00 | 0.00 | 61 | 1003.5 |
| 20260505022804 | 74 | 129 | 0.9 | 2.6 | 0.00 | 0.00 | 0.00 | 61 | 1003.5 |
| 20260505022604 | 74 | 130 | 0.9 | 3.5 | 0.00 | 0.00 | 0.00 | 60 | 1003.5 |
| 20260505022404 | 74 | 130 | 0.9 | 3.5 | 0.00 | 0.00 | 0.00 | 60 | 1003.6 |
| 20260505022204 | 74 | 127 | 0.9 | 3.5 | 0.00 | 0.00 | 0.00 | 60 | 1003.6 |
| 20260505022104 | 74 | 126 | 0.9 | 3.5 | 0.00 | 0.00 | 0.00 | 60 | 1003.6 |
| 20260505022004 | 74 | 127 | 1.7 | 3.5 | 0.00 | 0.00 | 0.00 | 60 | 1003.5 |
| 20260505021904 | 75 | 128 | 1.7 | 3.5 | 0.00 | 0.00 | 0.00 | 59 | 1003.6 |
| 20260505021804 | 75 | 129 | 1.7 | 3.5 | 0.00 | 0.00 | 0.00 | 59 | 1003.6 |
| 20260505021704 | 75 | 129 | 1.7 | 3.5 | 0.00 | 0.00 | 0.00 | 59 | 1003.5 |
| 20260505021604 | 75 | 132 | 1.7 | 7.0 | 0.00 | 0.00 | 0.00 | 59 | 1003.5 |
| 20260505021504 | 75 | 132 | 1.7 | 7.0 | 0.00 | 0.00 | 0.00 | 59 | 1003.5 |
| 20260505021104 | 75 | 140 | 1.7 | 7.0 | 0.00 | 0.00 | 0.00 | 59 | 1003.6 |
| 20260505021004 | 75 | 147 | 1.7 | 7.0 | 0.00 | 0.00 | 0.00 | 59 | 1003.6 |
| 20260505020904 | 75 | 150 | 1.7 | 7.0 | 0.00 | 0.00 | 0.00 | 59 | 1003.7 |
| 20260505020804 | 75 | 152 | 0.9 | 7.0 | 0.00 | 0.00 | 0.00 | 59 | 1003.7 |
| 20260505020704 | 75 | 154 | 0.9 | 7.0 | 0.00 | 0.00 | 0.00 | 59 | 1003.8 |
| 20260505020604 | 75 | 153 | 0.9 | 4.3 | 0.00 | 0.00 | 0.00 | 59 | 1003.8 |
| 20260505020504 | 75 | 157 | 1.7 | 4.3 | 0.00 | 0.00 | 0.00 | 59 | 1003.8 |
| 20260505020404 | 75 | 162 | 1.7 | 4.3 | 0.00 | 0.00 | 0.00 | 59 | 1003.9 |
| 20260505020304 | 75 | 167 | 1.7 | 7.0 | 0.00 | 0.00 | 0.00 | 58 | 1003.9 |
| 20260505020104 | 75 | 171 | 1.7 | 7.0 | 0.00 | 0.00 | 0.00 | 58 | 1004.0 |
| 20260505020004 | 75 | 169 | 1.7 | 7.0 | 0.00 | 0.00 | 0.00 | 58 | 1003.9 |
| 20260505015904 | 75 | 168 | 1.7 | 7.0 | 0.00 | 0.00 | 0.00 | 58 | 1003.9 |
| 20260505015804 | 75 | 168 | 1.7 | 7.0 | 0.00 | 0.00 | 0.00 | 58 | 1003.9 |
| 20260505015704 | 75 | 166 | 1.7 | 7.0 | 0.00 | 0.00 | 0.00 | 58 | 1003.9 |
| 20260505015604 | 75 | 167 | 1.7 | 7.0 | 0.00 | 0.00 | 0.00 | 58 | 1003.9 |
| 20260505015404 | 75 | 165 | 1.7 | 7.0 | 0.00 | 0.00 | 0.00 | 57 | 1003.8 |
| 20260505015304 | 75 | 167 | 1.7 | 7.8 | 0.00 | 0.00 | 0.00 | 57 | 1003.8 |
| 20260505015105 | 75 | 163 | 1.7 | 7.8 | 0.00 | 0.00 | 0.00 | 57 | 1003.7 |
| 20260505015005 | 75 | 159 | 1.7 | 7.8 | 0.00 | 0.00 | 0.00 | 57 | 1003.7 |
| 20260505014904 | 75 | 155 | 1.7 | 7.8 | 0.00 | 0.00 | 0.00 | 57 | 1003.6 |
| 20260505014804 | 76 | 154 | 1.7 | 7.8 | 0.00 | 0.00 | 0.00 | 57 | 1003.6 |
| 20260505014704 | 76 | 154 | 1.7 | 7.8 | 0.00 | 0.00 | 0.00 | 57 | 1003.5 |
| 20260505014404 | 76 | 144 | 0.9 | 7.8 | 0.00 | 0.00 | 0.00 | 56 | 1003.3 |
| 20260505014304 | 76 | 139 | 0.9 | 4.3 | 0.00 | 0.00 | 0.00 | 56 | 1003.2 |
| 20260505014204 | 76 | 143 | 1.7 | 4.3 | 0.00 | 0.00 | 0.00 | 56 | 1003.1 |
| 20260505014104 | 76 | 145 | 1.7 | 4.3 | 0.00 | 0.00 | 0.00 | 56 | 1003.2 |
| 20260505014004 | 76 | 151 | 1.7 | 4.3 | 0.00 | 0.00 | 0.00 | 56 | 1003.2 |
| 20260505013904 | 76 | 154 | 1.7 | 4.3 | 0.00 | 0.00 | 0.00 | 56 | 1003.3 |
| 20260505013804 | 76 | 151 | 1.7 | 4.3 | 0.00 | 0.00 | 0.00 | 55 | 1003.4 |
| 20260505013704 | 76 | 152 | 1.7 | 5.2 | 0.00 | 0.00 | 0.00 | 55 | 1003.4 |
| 20260505013604 | 76 | 152 | 1.7 | 5.2 | 0.00 | 0.00 | 0.00 | 55 | 1003.4 |
| 20260505013504 | 76 | 151 | 1.7 | 5.2 | 0.00 | 0.00 | 0.00 | 55 | 1003.3 |
| 20260505013404 | 76 | 152 | 0.9 | 5.2 | 0.00 | 0.00 | 0.00 | 55 | 1003.3 |
| 20260505013204 | 76 | 141 | 0.9 | 5.2 | 0.00 | 0.00 | 0.00 | 55 | 1003.2 |
| 20260505013004 | 76 | 136 | 0.9 | 5.2 | 0.00 | 0.00 | 0.00 | 55 | 1003.0 |
| 20260505012904 | 76 | 137 | 0.9 | 5.2 | 0.00 | 0.00 | 0.00 | 54 | 1003.0 |
| 20260505012804 | 76 | 142 | 0.9 | 5.2 | 0.00 | 0.00 | 0.00 | 55 | 1003.0 |
| 20260505012704 | 76 | 141 | 1.7 | 4.3 | 0.00 | 0.00 | 0.00 | 54 | 1003.1 |
| 20260505012604 | 76 | 143 | 0.9 | 4.3 | 0.00 | 0.00 | 0.00 | 54 | 1003.0 |
| 20260505012504 | 76 | 144 | 1.7 | 4.3 | 0.00 | 0.00 | 0.00 | 54 | 1003.0 |
| 20260505012404 | 76 | 141 | 1.7 | 4.3 | 0.00 | 0.00 | 0.00 | 54 | 1003.0 |
| 20260505012304 | 76 | 142 | 1.7 | 4.3 | 0.00 | 0.00 | 0.00 | 54 | 1003.0 |
| 20260505012204 | 76 | 142 | 1.7 | 4.3 | 0.00 | 0.00 | 0.00 | 54 | 1003.0 |
| 20260505012105 | 76 | 142 | 1.7 | 4.3 | 0.00 | 0.00 | 0.00 | 54 | 1002.9 |
| 20260505012005 | 76 | 143 | 1.7 | 4.3 | 0.00 | 0.00 | 0.00 | 54 | 1002.7 |
| 20260505011905 | 76 | 146 | 1.7 | 7.0 | 0.00 | 0.00 | 0.00 | 53 | 1002.7 |
| 20260505011805 | 76 | 149 | 1.7 | 7.0 | 0.00 | 0.00 | 0.00 | 53 | 1002.7 |
| 20260505011705 | 76 | 150 | 1.7 | 7.0 | 0.00 | 0.00 | 0.00 | 53 | 1002.7 |
| 20260505011605 | 76 | 151 | 1.7 | 7.0 | 0.00 | 0.00 | 0.00 | 53 | 1002.7 |
| 20260505011506 | 76 | 151 | 1.7 | 7.0 | 0.00 | 0.00 | 0.00 | 53 | 1002.7 |
| 20260505011404 | 77 | 153 | 1.7 | 7.0 | 0.00 | 0.00 | 0.00 | 53 | 1002.7 |
| 20260505011305 | 77 | 151 | 1.7 | 7.0 | 0.00 | 0.00 | 0.00 | 53 | 1002.7 |
| 20260505011205 | 77 | 150 | 1.7 | 7.0 | 0.00 | 0.00 | 0.00 | 53 | 1002.7 |
| 20260505011105 | 77 | 150 | 1.7 | 7.0 | 0.00 | 0.00 | 0.00 | 53 | 1002.8 |
| 20260505011005 | 77 | 148 | 1.7 | 7.0 | 0.00 | 0.00 | 0.00 | 53 | 1002.7 |
| 20260505010905 | 77 | 145 | 1.7 | 6.1 | 0.00 | 0.00 | 0.00 | 53 | 1002.6 |
| 20260505010705 | 77 | 145 | 1.7 | 6.1 | 0.00 | 0.00 | 0.00 | 52 | 1002.6 |
| 20260505010605 | 77 | 147 | 1.7 | 6.1 | 0.00 | 0.00 | 0.00 | 52 | 1002.7 |
| 20260505010505 | 77 | 146 | 1.7 | 6.1 | 0.00 | 0.00 | 0.00 | 52 | 1002.6 |
| 20260505010305 | 77 | 145 | 1.7 | 6.1 | 0.00 | 0.00 | 0.00 | 52 | 1002.5 |
| 20260505010205 | 77 | 149 | 1.7 | 6.1 | 0.00 | 0.00 | 0.00 | 52 | 1002.5 |
| 20260505010105 | 77 | 146 | 1.7 | 6.1 | 0.00 | 0.00 | 0.00 | 52 | 1002.5 |
| 20260505010005 | 77 | 145 | 1.7 | 6.1 | 0.00 | 0.00 | 0.00 | 52 | 1002.5 |
| 20260505005905 | 77 | 146 | 1.7 | 6.1 | 0.00 | 0.00 | 0.00 | 52 | 1002.5 |
| 20260505005705 | 77 | 142 | 1.7 | 5.2 | 0.00 | 0.00 | 0.00 | 51 | 1002.5 |
| 20260505005605 | 77 | 137 | 1.7 | 5.2 | 0.00 | 0.00 | 0.00 | 51 | 1002.5 |
| 20260505005505 | 77 | 137 | 1.7 | 5.2 | 0.00 | 0.00 | 0.00 | 51 | 1002.5 |
| 20260505005405 | 78 | 138 | 1.7 | 5.2 | 0.00 | 0.00 | 0.00 | 51 | 1002.4 |
| 20260505005305 | 77 | 136 | 1.7 | 5.2 | 0.00 | 0.00 | 0.00 | 51 | 1002.5 |
| 20260505005104 | 78 | 132 | 1.7 | 5.2 | 0.00 | 0.00 | 0.00 | 51 | 1002.5 |
| 20260505005005 | 78 | 130 | 1.7 | 5.2 | 0.00 | 0.00 | 0.00 | 51 | 1002.5 |
| 20260505004905 | 78 | 129 | 1.7 | 5.2 | 0.00 | 0.00 | 0.00 | 51 | 1002.6 |
| 20260505004805 | 78 | 129 | 1.7 | 5.2 | 0.00 | 0.00 | 0.00 | 51 | 1002.5 |
| 20260505004705 | 78 | 129 | 1.7 | 4.3 | 0.00 | 0.00 | 0.00 | 50 | 1002.5 |
| 20260505004305 | 78 | 129 | 1.7 | 4.3 | 0.00 | 0.00 | 0.00 | 50 | 1002.6 |
| 20260505004004 | 78 | 137 | 1.7 | 6.1 | 0.00 | 0.00 | 0.00 | 50 | 1002.7 |
| 20260505003905 | 78 | 135 | 1.7 | 6.1 | 0.00 | 0.00 | 0.00 | 49 | 1002.7 |
| 20260505003804 | 78 | 138 | 1.7 | 6.1 | 0.00 | 0.00 | 0.00 | 49 | 1002.6 |
| 20260505003705 | 78 | 138 | 1.7 | 6.1 | 0.00 | 0.00 | 0.00 | 49 | 1002.6 |
| 20260505003605 | 78 | 139 | 1.7 | 6.1 | 0.00 | 0.00 | 0.00 | 49 | 1002.7 |
| 20260505003505 | 78 | 140 | 1.7 | 6.1 | 0.00 | 0.00 | 0.00 | 48 | 1002.7 |
| 20260505003404 | 78 | 144 | 1.7 | 6.1 | 0.00 | 0.00 | 0.00 | 48 | 1002.6 |
| 20260505003205 | 78 | 149 | 2.6 | 6.1 | 0.00 | 0.00 | 0.00 | 48 | 1002.6 |
| 20260505003105 | 78 | 155 | 2.6 | 6.1 | 0.00 | 0.00 | 0.00 | 48 | 1002.5 |
| 20260505003004 | 78 | 154 | 1.7 | 6.1 | 0.00 | 0.00 | 0.00 | 48 | 1002.6 |
| 20260505002805 | 79 | 154 | 1.7 | 6.1 | 0.00 | 0.00 | 0.00 | 47 | 1002.5 |
| 20260505002704 | 79 | 155 | 1.7 | 6.1 | 0.00 | 0.00 | 0.00 | 47 | 1002.5 |
| 20260505002605 | 79 | 158 | 1.7 | 6.1 | 0.00 | 0.00 | 0.00 | 48 | 1002.6 |
| 20260505002505 | 79 | 157 | 1.7 | 6.1 | 0.00 | 0.00 | 0.00 | 47 | 1002.6 |
| 20260505002405 | 79 | 155 | 1.7 | 6.1 | 0.00 | 0.00 | 0.00 | 47 | 1002.7 |
| 20260505002305 | 79 | 156 | 1.7 | 6.1 | 0.00 | 0.00 | 0.00 | 47 | 1002.6 |
| 20260505002205 | 79 | 154 | 1.7 | 6.1 | 0.00 | 0.00 | 0.00 | 47 | 1002.7 |
| 20260505002105 | 79 | 149 | 1.7 | 6.1 | 0.00 | 0.00 | 0.00 | 47 | 1002.7 |
| 20260505002005 | 79 | 152 | 1.7 | 7.0 | 0.00 | 0.00 | 0.00 | 47 | 1002.8 |
| 20260505001905 | 79 | 151 | 1.7 | 7.0 | 0.00 | 0.00 | 0.00 | 47 | 1002.8 |
| 20260505001804 | 79 | 150 | 1.7 | 7.0 | 0.00 | 0.00 | 0.00 | 47 | 1002.8 |
| 20260505001704 | 79 | 150 | 1.7 | 7.0 | 0.00 | 0.00 | 0.00 | 46 | 1002.8 |
| 20260505001504 | 79 | 148 | 1.7 | 7.0 | 0.00 | 0.00 | 0.00 | 47 | 1002.9 |
| 20260505001304 | 79 | 152 | 1.7 | 7.0 | 0.00 | 0.00 | 0.00 | 46 | 1002.9 |
| 20260505001005 | 79 | 147 | 1.7 | 6.1 | 0.00 | 0.00 | 0.00 | 46 | 1002.8 |
| 20260505000805 | 79 | 147 | 1.7 | 4.3 | 0.00 | 0.00 | 0.00 | 46 | 1002.9 |
| 20260505000705 | 79 | 145 | 1.7 | 5.2 | 0.00 | 0.00 | 0.00 | 46 | 1002.9 |
| 20260505000605 | 79 | 145 | 1.7 | 5.2 | 0.00 | 0.00 | 0.00 | 46 | 1003.0 |
| 20260505000504 | 80 | 144 | 1.7 | 5.2 | 0.00 | 0.00 | 0.00 | 46 | 1003.0 |
| 20260505000406 | 79 | 143 | 1.7 | 5.2 | 0.00 | 0.00 | 0.00 | 46 | 1003.0 |
| 20260505000305 | 80 | 138 | 1.7 | 5.2 | 0.00 | 0.00 | 0.00 | 46 | 1003.0 |
| 20260505000104 | 80 | 138 | 1.7 | 5.2 | 0.00 | 0.00 | 0.00 | 46 | 1003.0 |
| 20260504235804 | 80 | 144 | 1.7 | 5.2 | 0.00 | 0.00 | 0.00 | 46 | 1003.1 |
| 20260504235705 | 80 | 148 | 1.7 | 4.3 | 0.00 | 0.00 | 0.00 | 46 | 1003.1 |
| 20260504235605 | 80 | 150 | 1.7 | 4.3 | 0.00 | 0.00 | 0.00 | 46 | 1003.1 |
| 20260504235505 | 80 | 151 | 1.7 | 4.3 | 0.00 | 0.00 | 0.00 | 46 | 1003.1 |
| 20260504235405 | 80 | 155 | 1.7 | 7.0 | 0.00 | 0.00 | 0.00 | 46 | 1003.1 |
| 20260504235305 | 80 | 158 | 1.7 | 7.0 | 0.00 | 0.00 | 0.00 | 46 | 1003.1 |
| 20260504235205 | 80 | 154 | 1.7 | 7.0 | 0.00 | 0.00 | 0.00 | 46 | 1003.1 |
| 20260504235105 | 80 | 153 | 1.7 | 7.0 | 0.00 | 0.00 | 0.00 | 46 | 1003.1 |
| 20260504235005 | 80 | 151 | 1.7 | 7.0 | 0.00 | 0.00 | 0.00 | 46 | 1003.1 |
| 20260504234905 | 80 | 152 | 2.6 | 7.0 | 0.00 | 0.00 | 0.00 | 46 | 1003.2 |
| 20260504234805 | 80 | 152 | 2.6 | 7.0 | 0.00 | 0.00 | 0.00 | 46 | 1003.1 |
| 20260504234605 | 80 | 158 | 2.6 | 7.0 | 0.00 | 0.00 | 0.00 | 46 | 1003.1 |
| 20260504234505 | 80 | 161 | 2.6 | 8.7 | 0.00 | 0.00 | 0.00 | 46 | 1003.1 |
| 20260504234305 | 80 | 156 | 3.5 | 8.7 | 0.00 | 0.00 | 0.00 | 45 | 1003.1 |
| 20260504234205 | 80 | 160 | 3.5 | 8.7 | 0.00 | 0.00 | 0.00 | 46 | 1003.2 |
| 20260504234005 | 80 | 167 | 3.5 | 8.7 | 0.00 | 0.00 | 0.00 | 45 | 1003.2 |
| 20260504233705 | 80 | 165 | 3.5 | 8.7 | 0.00 | 0.00 | 0.00 | 45 | 1003.2 |
| 20260504233605 | 80 | 162 | 3.5 | 8.7 | 0.00 | 0.00 | 0.00 | 45 | 1003.1 |
| 20260504233505 | 80 | 160 | 3.5 | 8.7 | 0.00 | 0.00 | 0.00 | 46 | 1003.2 |
| 20260504233405 | 80 | 160 | 3.5 | 8.7 | 0.00 | 0.00 | 0.00 | 45 | 1003.1 |
| 20260504233305 | 80 | 162 | 3.5 | 8.7 | 0.00 | 0.00 | 0.00 | 45 | 1003.1 |
| 20260504233205 | 80 | 164 | 3.5 | 8.7 | 0.00 | 0.00 | 0.00 | 45 | 1003.1 |
| 20260504233105 | 80 | 164 | 3.5 | 8.7 | 0.00 | 0.00 | 0.00 | 45 | 1003.1 |
| 20260504233005 | 80 | 161 | 2.6 | 8.7 | 0.00 | 0.00 | 0.00 | 45 | 1003.1 |
| 20260504232905 | 80 | 160 | 2.6 | 8.7 | 0.00 | 0.00 | 0.00 | 45 | 1003.1 |
| 20260504232805 | 80 | 165 | 2.6 | 9.6 | 0.00 | 0.00 | 0.00 | 45 | 1003.2 |
| 20260504232605 | 80 | 170 | 2.6 | 9.6 | 0.00 | 0.00 | 0.00 | 45 | 1003.1 |
| 20260504232505 | 81 | 169 | 2.6 | 9.6 | 0.00 | 0.00 | 0.00 | 45 | 1003.1 |
| 20260504232405 | 81 | 169 | 3.5 | 9.6 | 0.00 | 0.00 | 0.00 | 45 | 1003.1 |
| 20260504232305 | 81 | 170 | 2.6 | 9.6 | 0.00 | 0.00 | 0.00 | 45 | 1003.1 |
| 20260504232205 | 81 | 170 | 2.6 | 9.6 | 0.00 | 0.00 | 0.00 | 46 | 1003.1 |
| 20260504232105 | 81 | 170 | 2.6 | 9.6 | 0.00 | 0.00 | 0.00 | 46 | 1003.1 |
| 20260504232005 | 81 | 168 | 3.5 | 9.6 | 0.00 | 0.00 | 0.00 | 45 | 1003.1 |
| 20260504231905 | 81 | 168 | 2.6 | 9.6 | 0.00 | 0.00 | 0.00 | 45 | 1003.2 |
| 20260504231805 | 81 | 164 | 2.6 | 7.8 | 0.00 | 0.00 | 0.00 | 45 | 1003.1 |
| 20260504231705 | 81 | 161 | 2.6 | 7.8 | 0.00 | 0.00 | 0.00 | 45 | 1003.1 |
| 20260504231605 | 81 | 158 | 2.6 | 7.8 | 0.00 | 0.00 | 0.00 | 45 | 1003.1 |
| 20260504231505 | 81 | 160 | 2.6 | 7.8 | 0.00 | 0.00 | 0.00 | 45 | 1003.1 |
| 20260504231405 | 81 | 158 | 2.6 | 7.8 | 0.00 | 0.00 | 0.00 | 44 | 1003.0 |
| 20260504231305 | 81 | 154 | 2.6 | 7.8 | 0.00 | 0.00 | 0.00 | 45 | 1003.0 |
| 20260504231105 | 81 | 153 | 2.6 | 8.7 | 0.00 | 0.00 | 0.00 | 45 | 1003.0 |
| 20260504231005 | 81 | 154 | 2.6 | 8.7 | 0.00 | 0.00 | 0.00 | 45 | 1003.0 |
| 20260504230905 | 81 | 158 | 2.6 | 12.2 | 0.00 | 0.00 | 0.00 | 45 | 1003.0 |
| 20260504230805 | 81 | 160 | 2.6 | 12.2 | 0.00 | 0.00 | 0.00 | 44 | 1003.0 |
| 20260504230704 | 81 | 159 | 2.6 | 12.2 | 0.00 | 0.00 | 0.00 | 44 | 1002.9 |
| 20260504230605 | 81 | 164 | 3.5 | 12.2 | 0.00 | 0.00 | 0.00 | 45 | 1003.0 |
| 20260504230404 | 81 | 167 | 3.5 | 12.2 | 0.00 | 0.00 | 0.00 | 45 | 1002.9 |
| 20260504230204 | 82 | 167 | 3.5 | 12.2 | 0.00 | 0.00 | 0.00 | 45 | 1002.9 |
| 20260504230005 | 82 | 167 | 3.5 | 12.2 | 0.00 | 0.00 | 0.00 | 44 | 1002.9 |
| 20260504225905 | 82 | 166 | 3.5 | 8.7 | 0.00 | 0.00 | 0.00 | 44 | 1002.9 |
| 20260504225805 | 82 | 167 | 3.5 | 8.7 | 0.00 | 0.00 | 0.00 | 44 | 1002.9 |
| 20260504225705 | 82 | 169 | 4.3 | 8.7 | 0.00 | 0.00 | 0.00 | 44 | 1003.0 |
| 20260504225604 | 82 | 171 | 4.3 | 8.7 | 0.00 | 0.00 | 0.00 | 43 | 1003.0 |
| 20260504225504 | 82 | 176 | 3.5 | 9.6 | 0.00 | 0.00 | 0.00 | 43 | 1003.0 |
| 20260504225405 | 82 | 174 | 3.5 | 10.4 | 0.00 | 0.00 | 0.00 | 44 | 1003.0 |
| 20260504225305 | 82 | 174 | 3.5 | 10.4 | 0.00 | 0.00 | 0.00 | 43 | 1003.0 |
| 20260504225205 | 82 | 171 | 3.5 | 10.4 | 0.00 | 0.00 | 0.00 | 44 | 1003.0 |
| 20260504224805 | 82 | 165 | 3.5 | 10.4 | 0.00 | 0.00 | 0.00 | 44 | 1003.0 |
| 20260504224705 | 82 | 163 | 2.6 | 10.4 | 0.00 | 0.00 | 0.00 | 43 | 1003.0 |
| 20260504224505 | 82 | 156 | 2.6 | 10.4 | 0.00 | 0.00 | 0.00 | 43 | 1003.0 |
| 20260504224305 | 82 | 160 | 3.5 | 8.7 | 0.00 | 0.00 | 0.00 | 43 | 1002.9 |
| 20260504224205 | 82 | 162 | 3.5 | 8.7 | 0.00 | 0.00 | 0.00 | 44 | 1002.9 |
| 20260504224105 | 82 | 163 | 3.5 | 8.7 | 0.00 | 0.00 | 0.00 | 43 | 1002.9 |
| 20260504223805 | 82 | 165 | 3.5 | 8.7 | 0.00 | 0.00 | 0.00 | 44 | 1002.9 |
| 20260504223705 | 82 | 165 | 3.5 | 8.7 | 0.00 | 0.00 | 0.00 | 42 | 1002.9 |
| 20260504223605 | 82 | 164 | 3.5 | 8.7 | 0.00 | 0.00 | 0.00 | 43 | 1003.0 |
| 20260504223505 | 82 | 162 | 3.5 | 8.7 | 0.00 | 0.00 | 0.00 | 43 | 1003.0 |
| 20260504223405 | 82 | 159 | 3.5 | 8.7 | 0.00 | 0.00 | 0.00 | 42 | 1003.0 |
| 20260504223305 | 82 | 158 | 3.5 | 8.7 | 0.00 | 0.00 | 0.00 | 42 | 1002.9 |
| 20260504223205 | 83 | 162 | 3.5 | 9.6 | 0.00 | 0.00 | 0.00 | 42 | 1003.0 |
| 20260504223104 | 83 | 163 | 4.3 | 9.6 | 0.00 | 0.00 | 0.00 | 42 | 1002.9 |
| 20260504222905 | 83 | 175 | 4.3 | 13.0 | 0.00 | 0.00 | 0.00 | 43 | 1002.9 |
| 20260504222805 | 83 | 177 | 4.3 | 13.0 | 0.00 | 0.00 | 0.00 | 43 | 1003.0 |
| 20260504222705 | 83 | 181 | 4.3 | 13.0 | 0.00 | 0.00 | 0.00 | 42 | 1002.9 |
| 20260504222605 | 83 | 182 | 4.3 | 13.0 | 0.00 | 0.00 | 0.00 | 42 | 1002.9 |
| 20260504222505 | 83 | 183 | 4.3 | 13.0 | 0.00 | 0.00 | 0.00 | 42 | 1002.9 |
| 20260504222405 | 83 | 186 | 4.3 | 13.0 | 0.00 | 0.00 | 0.00 | 42 | 1002.8 |
| 20260504222305 | 83 | 187 | 4.3 | 13.0 | 0.00 | 0.00 | 0.00 | 42 | 1002.9 |
| 20260504222105 | 83 | 184 | 3.5 | 13.0 | 0.00 | 0.00 | 0.00 | 41 | 1002.7 |
| 20260504222005 | 83 | 181 | 3.5 | 13.0 | 0.00 | 0.00 | 0.00 | 41 | 1002.8 |
| 20260504221904 | 83 | 171 | 3.5 | 13.0 | 0.00 | 0.00 | 0.00 | 42 | 1002.9 |
| 20260504221805 | 83 | 168 | 3.5 | 13.0 | 0.00 | 0.00 | 0.00 | 42 | 1002.9 |
| 20260504221704 | 83 | 167 | 3.5 | 8.7 | 0.00 | 0.00 | 0.00 | 42 | 1002.9 |
| 20260504221604 | 83 | 166 | 3.5 | 8.7 | 0.00 | 0.00 | 0.00 | 42 | 1002.9 |
| 20260504221504 | 83 | 165 | 3.5 | 8.7 | 0.00 | 0.00 | 0.00 | 42 | 1002.9 |
| 20260504221405 | 83 | 168 | 4.3 | 8.7 | 0.00 | 0.00 | 0.00 | 41 | 1002.9 |
| 20260504221104 | 83 | 172 | 4.3 | 10.4 | 0.00 | 0.00 | 0.00 | 41 | 1002.9 |
| 20260504220904 | 84 | 176 | 4.3 | 10.4 | 0.00 | 0.00 | 0.00 | 41 | 1002.9 |
| 20260504220804 | 84 | 174 | 4.3 | 10.4 | 0.00 | 0.00 | 0.00 | 41 | 1002.9 |
| 20260504220704 | 84 | 171 | 4.3 | 10.4 | 0.00 | 0.00 | 0.00 | 41 | 1003.0 |
| 20260504220604 | 84 | 174 | 4.3 | 10.4 | 0.00 | 0.00 | 0.00 | 40 | 1002.9 |
| 20260504220504 | 84 | 175 | 4.3 | 10.4 | 0.00 | 0.00 | 0.00 | 39 | 1002.8 |
| 20260504220304 | 84 | 173 | 4.3 | 10.4 | 0.00 | 0.00 | 0.00 | 40 | 1002.9 |
| 20260504220204 | 84 | 173 | 4.3 | 11.3 | 0.00 | 0.00 | 0.00 | 39 | 1003.0 |
| 20260504220104 | 84 | 170 | 3.5 | 11.3 | 0.00 | 0.00 | 0.00 | 39 | 1003.0 |
| 20260504215904 | 85 | 168 | 3.5 | 11.3 | 0.00 | 0.00 | 0.00 | 40 | 1002.9 |
| 20260504215804 | 85 | 172 | 3.5 | 11.3 | 0.00 | 0.00 | 0.00 | 41 | 1003.0 |
| 20260504215604 | 85 | 171 | 4.3 | 11.3 | 0.00 | 0.00 | 0.00 | 39 | 1003.0 |
| 20260504215504 | 85 | 174 | 3.5 | 11.3 | 0.00 | 0.00 | 0.00 | 40 | 1003.0 |
| 20260504215305 | 85 | 171 | 3.5 | 11.3 | 0.00 | 0.00 | 0.00 | 40 | 1003.0 |
| 20260504215105 | 85 | 176 | 3.5 | 9.6 | 0.00 | 0.00 | 0.00 | 39 | 1003.0 |
| 20260504214904 | 85 | 175 | 3.5 | 9.6 | 0.00 | 0.00 | 0.00 | 40 | 1003.1 |
| 20260504214804 | 85 | 174 | 4.3 | 9.6 | 0.00 | 0.00 | 0.00 | 40 | 1003.1 |
| 20260504214704 | 85 | 171 | 4.3 | 9.6 | 0.00 | 0.00 | 0.00 | 40 | 1003.1 |
| 20260504214604 | 85 | 172 | 4.3 | 9.6 | 0.00 | 0.00 | 0.00 | 40 | 1003.1 |
| 20260504214405 | 85 | 165 | 4.3 | 10.4 | 0.00 | 0.00 | 0.00 | 40 | 1003.1 |
| 20260504214305 | 85 | 161 | 3.5 | 10.4 | 0.00 | 0.00 | 0.00 | 39 | 1003.1 |
| 20260504214104 | 85 | 161 | 3.5 | 10.4 | 0.00 | 0.00 | 0.00 | 39 | 1003.1 |
| 20260504214005 | 85 | 164 | 3.5 | 10.4 | 0.00 | 0.00 | 0.00 | 39 | 1003.0 |
| 20260504213804 | 85 | 169 | 4.3 | 10.4 | 0.00 | 0.00 | 0.00 | 40 | 1003.1 |
| 20260504213704 | 85 | 172 | 4.3 | 11.3 | 0.00 | 0.00 | 0.00 | 39 | 1003.1 |
| 20260504213604 | 85 | 174 | 4.3 | 11.3 | 0.00 | 0.00 | 0.00 | 40 | 1003.1 |
| 20260504213504 | 85 | 175 | 5.2 | 11.3 | 0.00 | 0.00 | 0.00 | 39 | 1003.2 |
| 20260504213305 | 85 | 181 | 5.2 | 11.3 | 0.00 | 0.00 | 0.00 | 38 | 1003.1 |
| 20260504213204 | 85 | 182 | 5.2 | 11.3 | 0.00 | 0.00 | 0.00 | 38 | 1003.2 |
| 20260504213104 | 85 | 181 | 5.2 | 11.3 | 0.00 | 0.00 | 0.00 | 38 | 1003.1 |
| 20260504212904 | 86 | 174 | 4.3 | 11.3 | 0.00 | 0.00 | 0.00 | 38 | 1003.1 |
| 20260504212804 | 86 | 173 | 4.3 | 11.3 | 0.00 | 0.00 | 0.00 | 37 | 1003.1 |
| 20260504212405 | 87 | 170 | 3.5 | 8.7 | 0.00 | 0.00 | 0.00 | 37 | 1003.1 |
| 20260504212305 | 87 | 170 | 3.5 | 8.7 | 0.00 | 0.00 | 0.00 | 36 | 1003.2 |
| 20260504212205 | 87 | 163 | 3.5 | 8.7 | 0.00 | 0.00 | 0.00 | 36 | 1003.1 |
| 20260504212104 | 87 | 162 | 3.5 | 8.7 | 0.00 | 0.00 | 0.00 | 37 | 1003.1 |
| 20260504212004 | 87 | 166 | 3.5 | 8.7 | 0.00 | 0.00 | 0.00 | 36 | 1003.2 |
| 20260504211905 | 87 | 163 | 2.6 | 8.7 | 0.00 | 0.00 | 0.00 | 35 | 1003.1 |
| 20260504211705 | 87 | 160 | 2.6 | 8.7 | 0.00 | 0.00 | 0.00 | 35 | 1003.2 |
| 20260504211604 | 87 | 162 | 2.6 | 8.7 | 0.00 | 0.00 | 0.00 | 36 | 1003.2 |
| 20260504211404 | 87 | 178 | 3.5 | 12.2 | 0.00 | 0.00 | 0.00 | 35 | 1003.2 |
| 20260504211304 | 87 | 186 | 3.5 | 12.2 | 0.00 | 0.00 | 0.00 | 36 | 1003.2 |
| 20260504211105 | 87 | 193 | 3.5 | 12.2 | 0.00 | 0.00 | 0.00 | 35 | 1003.2 |
| 20260504211004 | 87 | 192 | 3.5 | 12.2 | 0.00 | 0.00 | 0.00 | 34 | 1003.2 |
| 20260504210904 | 87 | 192 | 3.5 | 12.2 | 0.00 | 0.00 | 0.00 | 35 | 1003.2 |
| 20260504210804 | 87 | 194 | 3.5 | 12.2 | 0.00 | 0.00 | 0.00 | 34 | 1003.3 |
| 20260504210704 | 87 | 194 | 3.5 | 12.2 | 0.00 | 0.00 | 0.00 | 34 | 1003.3 |
| 20260504210504 | 87 | 191 | 2.6 | 12.2 | 0.00 | 0.00 | 0.00 | 32 | 1003.3 |
| 20260504210405 | 88 | 175 | 2.6 | 7.8 | 0.00 | 0.00 | 0.00 | 33 | 1003.3 |
| 20260504210304 | 88 | 164 | 2.6 | 6.1 | 0.00 | 0.00 | 0.00 | 33 | 1003.3 |
| 20260504210204 | 88 | 155 | 2.6 | 6.1 | 0.00 | 0.00 | 0.00 | 34 | 1003.3 |
| 20260504210104 | 88 | 152 | 2.6 | 6.1 | 0.00 | 0.00 | 0.00 | 34 | 1003.3 |
| 20260504210005 | 88 | 150 | 2.6 | 6.1 | 0.00 | 0.00 | 0.00 | 33 | 1003.3 |
| 20260504205904 | 88 | 147 | 2.6 | 5.2 | 0.00 | 0.00 | 0.00 | 34 | 1003.3 |
| 20260504205805 | 88 | 148 | 2.6 | 6.1 | 0.00 | 0.00 | 0.00 | 33 | 1003.4 |
| 20260504205604 | 88 | 144 | 2.6 | 6.1 | 0.00 | 0.00 | 0.00 | 33 | 1003.4 |
| 20260504205504 | 88 | 143 | 2.6 | 6.1 | 0.00 | 0.00 | 0.00 | 33 | 1003.4 |
| 20260504205404 | 88 | 143 | 1.7 | 6.1 | 0.00 | 0.00 | 0.00 | 33 | 1003.4 |
| 20260504205305 | 88 | 144 | 1.7 | 6.1 | 0.00 | 0.00 | 0.00 | 33 | 1003.4 |
| 20260504205205 | 88 | 147 | 2.6 | 6.1 | 0.00 | 0.00 | 0.00 | 34 | 1003.4 |
| 20260504205104 | 88 | 143 | 1.7 | 6.1 | 0.00 | 0.00 | 0.00 | 34 | 1003.4 |
| 20260504205005 | 88 | 144 | 1.7 | 6.1 | 0.00 | 0.00 | 0.00 | 34 | 1003.5 |
| 20260504204905 | 88 | 145 | 1.7 | 6.1 | 0.00 | 0.00 | 0.00 | 33 | 1003.4 |
| 20260504204804 | 88 | 140 | 1.7 | 5.2 | 0.00 | 0.00 | 0.00 | 33 | 1003.5 |
| 20260504204704 | 88 | 139 | 1.7 | 5.2 | 0.00 | 0.00 | 0.00 | 33 | 1003.5 |
| 20260504204604 | 88 | 140 | 1.7 | 5.2 | 0.00 | 0.00 | 0.00 | 32 | 1003.5 |
| 20260504204504 | 88 | 142 | 1.7 | 5.2 | 0.00 | 0.00 | 0.00 | 34 | 1003.5 |
| 20260504204404 | 88 | 151 | 1.7 | 5.2 | 0.00 | 0.00 | 0.00 | 34 | 1003.6 |
| 20260504204304 | 88 | 151 | 1.7 | 5.2 | 0.00 | 0.00 | 0.00 | 34 | 1003.5 |
| 20260504204204 | 88 | 150 | 1.7 | 5.2 | 0.00 | 0.00 | 0.00 | 33 | 1003.6 |
| 20260504204105 | 88 | 152 | 1.7 | 4.3 | 0.00 | 0.00 | 0.00 | 34 | 1003.5 |
| 20260504204004 | 88 | 154 | 1.7 | 4.3 | 0.00 | 0.00 | 0.00 | 34 | 1003.6 |
| 20260504203804 | 88 | 164 | 1.7 | 5.2 | 0.00 | 0.00 | 0.00 | 34 | 1003.6 |
| 20260504203704 | 88 | 169 | 1.7 | 5.2 | 0.00 | 0.00 | 0.00 | 34 | 1003.6 |
| 20260504203604 | 88 | 172 | 1.7 | 5.2 | 0.00 | 0.00 | 0.00 | 34 | 1003.6 |
| 20260504203504 | 88 | 174 | 1.7 | 6.1 | 0.00 | 0.00 | 0.00 | 33 | 1003.7 |
| 20260504203405 | 87 | 175 | 2.6 | 6.1 | 0.00 | 0.00 | 0.00 | 34 | 1003.6 |
| 20260504203104 | 87 | 179 | 2.6 | 9.6 | 0.00 | 0.00 | 0.00 | 34 | 1003.7 |
| 20260504203004 | 87 | 179 | 2.6 | 9.6 | 0.00 | 0.00 | 0.00 | 33 | 1003.7 |
| 20260504202904 | 87 | 182 | 2.6 | 9.6 | 0.00 | 0.00 | 0.00 | 34 | 1003.7 |
| 20260504202804 | 86 | 184 | 2.6 | 9.6 | 0.00 | 0.00 | 0.00 | 34 | 1003.7 |
| 20260504202704 | 86 | 183 | 2.6 | 9.6 | 0.00 | 0.00 | 0.00 | 34 | 1003.7 |
| 20260504202604 | 86 | 183 | 2.6 | 9.6 | 0.00 | 0.00 | 0.00 | 33 | 1003.8 |
| 20260504202404 | 86 | 179 | 2.6 | 9.6 | 0.00 | 0.00 | 0.00 | 34 | 1003.8 |
| 20260504202305 | 87 | 178 | 2.6 | 9.6 | 0.00 | 0.00 | 0.00 | 33 | 1003.8 |
| 20260504202204 | 86 | 178 | 2.6 | 9.6 | 0.00 | 0.00 | 0.00 | 35 | 1003.9 |
| 20260504202104 | 86 | 183 | 3.5 | 9.6 | 0.00 | 0.00 | 0.00 | 34 | 1004.0 |
| 20260504202004 | 86 | 185 | 2.6 | 9.6 | 0.00 | 0.00 | 0.00 | 34 | 1003.9 |
| 20260504201904 | 86 | 183 | 2.6 | 6.1 | 0.00 | 0.00 | 0.00 | 35 | 1003.9 |
| 20260504201604 | 86 | 188 | 3.5 | 6.1 | 0.00 | 0.00 | 0.00 | 34 | 1004.0 |
| 20260504201504 | 86 | 191 | 3.5 | 6.1 | 0.00 | 0.00 | 0.00 | 36 | 1004.0 |
| 20260504201404 | 86 | 189 | 3.5 | 6.1 | 0.00 | 0.00 | 0.00 | 35 | 1004.0 |
| 20260504201304 | 86 | 192 | 3.5 | 7.8 | 0.00 | 0.00 | 0.00 | 34 | 1004.1 |
| 20260504201204 | 86 | 194 | 3.5 | 7.8 | 0.00 | 0.00 | 0.00 | 35 | 1004.1 |
| 20260504200904 | 86 | 182 | 3.5 | 7.8 | 0.00 | 0.00 | 0.00 | 35 | 1004.1 |
| 20260504200805 | 86 | 177 | 3.5 | 7.8 | 0.00 | 0.00 | 0.00 | 34 | 1004.1 |
| 20260504200705 | 86 | 175 | 2.6 | 7.8 | 0.00 | 0.00 | 0.00 | 34 | 1004.1 |
| 20260504200505 | 86 | 163 | 2.6 | 7.8 | 0.00 | 0.00 | 0.00 | 36 | 1004.2 |
| 20260504200405 | 86 | 161 | 2.6 | 7.8 | 0.00 | 0.00 | 0.00 | 34 | 1004.2 |
| 20260504200305 | 86 | 153 | 2.6 | 7.0 | 0.00 | 0.00 | 0.00 | 35 | 1004.2 |
| 20260504200205 | 86 | 139 | 2.6 | 7.0 | 0.00 | 0.00 | 0.00 | 34 | 1004.2 |
| 20260504200105 | 86 | 124 | 1.7 | 6.1 | 0.00 | 0.00 | 0.00 | 34 | 1004.2 |
| 20260504195905 | 86 | 118 | 1.7 | 6.1 | 0.00 | 0.00 | 0.00 | 36 | 1004.3 |
| 20260504195805 | 86 | 114 | 1.7 | 6.1 | 0.00 | 0.00 | 0.00 | 37 | 1004.3 |
| 20260504195704 | 86 | 107 | 1.7 | 6.1 | 0.00 | 0.00 | 0.00 | 35 | 1004.3 |
| 20260504195604 | 86 | 105 | 1.7 | 6.1 | 0.00 | 0.00 | 0.00 | 36 | 1004.3 |
| 20260504195505 | 86 | 104 | 1.7 | 6.1 | 0.00 | 0.00 | 0.00 | 35 | 1004.4 |
| 20260504195404 | 86 | 105 | 1.7 | 6.1 | 0.00 | 0.00 | 0.00 | 37 | 1004.4 |
| 20260504195304 | 86 | 106 | 1.7 | 6.1 | 0.00 | 0.00 | 0.00 | 37 | 1004.4 |
| 20260504195204 | 86 | 111 | 1.7 | 5.2 | 0.00 | 0.00 | 0.00 | 36 | 1004.4 |
| 20260504195104 | 86 | 123 | 1.7 | 4.3 | 0.00 | 0.00 | 0.00 | 36 | 1004.4 |
| 20260504195005 | 86 | 132 | 1.7 | 4.3 | 0.00 | 0.00 | 0.00 | 36 | 1004.4 |
| 20260504194804 | 85 | 149 | 1.7 | 5.2 | 0.00 | 0.00 | 0.00 | 35 | 1004.5 |
| 20260504194704 | 85 | 166 | 1.7 | 7.8 | 0.00 | 0.00 | 0.00 | 36 | 1004.5 |
| 20260504194604 | 85 | 177 | 1.7 | 7.8 | 0.00 | 0.00 | 0.00 | 35 | 1004.6 |
| 20260504194504 | 85 | 182 | 1.7 | 7.8 | 0.00 | 0.00 | 0.00 | 36 | 1004.6 |
| 20260504194205 | 85 | 168 | 1.7 | 7.8 | 0.00 | 0.00 | 0.00 | 38 | 1004.6 |
| 20260504194104 | 85 | 160 | 1.7 | 7.8 | 0.00 | 0.00 | 0.00 | 38 | 1004.6 |
| 20260504193904 | 85 | 154 | 1.7 | 7.8 | 0.00 | 0.00 | 0.00 | 36 | 1004.6 |
| 20260504193804 | 85 | 149 | 1.7 | 7.8 | 0.00 | 0.00 | 0.00 | 37 | 1004.6 |
| 20260504193704 | 84 | 134 | 1.7 | 4.3 | 0.00 | 0.00 | 0.00 | 37 | 1004.6 |
| 20260504193605 | 84 | 141 | 1.7 | 6.1 | 0.00 | 0.00 | 0.00 | 37 | 1004.6 |
| 20260504193504 | 84 | 146 | 1.7 | 6.1 | 0.00 | 0.00 | 0.00 | 36 | 1004.6 |
| 20260504193305 | 84 | 163 | 1.7 | 6.1 | 0.00 | 0.00 | 0.00 | 38 | 1004.7 |
| 20260504193204 | 84 | 178 | 1.7 | 6.1 | 0.00 | 0.00 | 0.00 | 36 | 1004.7 |
| 20260504193104 | 84 | 188 | 2.6 | 6.1 | 0.00 | 0.00 | 0.00 | 38 | 1004.8 |
| 20260504193005 | 84 | 195 | 2.6 | 6.1 | 0.00 | 0.00 | 0.00 | 36 | 1004.8 |
| 20260504192905 | 84 | 195 | 2.6 | 6.1 | 0.00 | 0.00 | 0.00 | 38 | 1004.8 |
| 20260504192705 | 84 | 193 | 2.6 | 6.1 | 0.00 | 0.00 | 0.00 | 36 | 1004.9 |
| 20260504192604 | 84 | 191 | 2.6 | 6.1 | 0.00 | 0.00 | 0.00 | 37 | 1004.9 |
| 20260504192504 | 84 | 191 | 2.6 | 6.1 | 0.00 | 0.00 | 0.00 | 38 | 1004.9 |
| 20260504192305 | 84 | 189 | 2.6 | 6.1 | 0.00 | 0.00 | 0.00 | 36 | 1004.9 |
| 20260504192204 | 84 | 189 | 2.6 | 6.1 | 0.00 | 0.00 | 0.00 | 37 | 1004.9 |
| 20260504192104 | 84 | 194 | 2.6 | 6.1 | 0.00 | 0.00 | 0.00 | 37 | 1004.9 |
| 20260504191905 | 83 | 203 | 2.6 | 6.1 | 0.00 | 0.00 | 0.00 | 38 | 1005.0 |
| 20260504191805 | 83 | 204 | 2.6 | 6.1 | 0.00 | 0.00 | 0.00 | 39 | 1005.0 |
| 20260504191705 | 83 | 204 | 2.6 | 6.1 | 0.00 | 0.00 | 0.00 | 37 | 1005.0 |
| 20260504191605 | 83 | 200 | 2.6 | 6.1 | 0.00 | 0.00 | 0.00 | 37 | 1005.1 |
| 20260504191505 | 83 | 200 | 2.6 | 6.1 | 0.00 | 0.00 | 0.00 | 37 | 1005.1 |
| 20260504191404 | 83 | 202 | 1.7 | 6.1 | 0.00 | 0.00 | 0.00 | 38 | 1005.1 |
| 20260504191305 | 83 | 200 | 1.7 | 6.1 | 0.00 | 0.00 | 0.00 | 40 | 1005.1 |
| 20260504191205 | 83 | 192 | 1.7 | 6.1 | 0.00 | 0.00 | 0.00 | 37 | 1005.1 |
| 20260504191104 | 83 | 179 | 1.7 | 6.1 | 0.00 | 0.00 | 0.00 | 38 | 1005.1 |
| 20260504191004 | 83 | 166 | 1.7 | 4.3 | 0.00 | 0.00 | 0.00 | 39 | 1005.2 |
| 20260504190904 | 83 | 165 | 1.7 | 4.3 | 0.00 | 0.00 | 0.00 | 38 | 1005.2 |
| 20260504190804 | 83 | 163 | 1.7 | 4.3 | 0.00 | 0.00 | 0.00 | 38 | 1005.2 |
| 20260504190705 | 83 | 159 | 1.7 | 4.3 | 0.00 | 0.00 | 0.00 | 37 | 1005.2 |
| 20260504190604 | 83 | 159 | 1.7 | 4.3 | 0.00 | 0.00 | 0.00 | 38 | 1005.2 |
| 20260504190504 | 83 | 164 | 1.7 | 5.2 | 0.00 | 0.00 | 0.00 | 39 | 1005.2 |
| 20260504190404 | 83 | 165 | 1.7 | 5.2 | 0.00 | 0.00 | 0.00 | 40 | 1005.2 |
| 20260504190305 | 83 | 169 | 1.7 | 5.2 | 0.00 | 0.00 | 0.00 | 40 | 1005.3 |
| 20260504190205 | 83 | 171 | 1.7 | 5.2 | 0.00 | 0.00 | 0.00 | 38 | 1005.3 |
| 20260504190104 | 83 | 170 | 1.7 | 5.2 | 0.00 | 0.00 | 0.00 | 39 | 1005.3 |
| 20260504190004 | 83 | 167 | 1.7 | 5.2 | 0.00 | 0.00 | 0.00 | 41 | 1005.3 |
| 20260504185904 | 82 | 160 | 1.7 | 5.2 | 0.00 | 0.00 | 0.00 | 39 | 1005.3 |
| 20260504185804 | 82 | 157 | 1.7 | 5.2 | 0.00 | 0.00 | 0.00 | 39 | 1005.3 |
| 20260504185704 | 82 | 157 | 1.7 | 5.2 | 0.00 | 0.00 | 0.00 | 37 | 1005.3 |
| 20260504185505 | 83 | 146 | 1.7 | 4.3 | 0.00 | 0.00 | 0.00 | 40 | 1005.3 |
| 20260504185405 | 83 | 144 | 1.7 | 4.3 | 0.00 | 0.00 | 0.00 | 39 | 1005.3 |
| 20260504185305 | 83 | 140 | 0.9 | 4.3 | 0.00 | 0.00 | 0.00 | 40 | 1005.3 |
| 20260504185205 | 83 | 138 | 0.9 | 3.5 | 0.00 | 0.00 | 0.00 | 39 | 1005.2 |
| 20260504185104 | 83 | 139 | 0.9 | 4.3 | 0.00 | 0.00 | 0.00 | 37 | 1005.3 |
| 20260504185005 | 83 | 147 | 0.9 | 4.3 | 0.00 | 0.00 | 0.00 | 38 | 1005.2 |
| 20260504184904 | 83 | 153 | 0.9 | 4.3 | 0.00 | 0.00 | 0.00 | 39 | 1005.2 |
| 20260504184806 | 82 | 162 | 0.9 | 4.3 | 0.00 | 0.00 | 0.00 | 41 | 1005.3 |
| 20260504184704 | 82 | 168 | 0.9 | 4.3 | 0.00 | 0.00 | 0.00 | 41 | 1005.2 |
| 20260504184405 | 82 | 173 | 1.7 | 4.3 | 0.00 | 0.00 | 0.00 | 40 | 1005.4 |
| 20260504184305 | 82 | 171 | 1.7 | 4.3 | 0.00 | 0.00 | 0.00 | 39 | 1005.4 |
| 20260504184205 | 82 | 165 | 1.7 | 4.3 | 0.00 | 0.00 | 0.00 | 40 | 1005.5 |
| 20260504184104 | 82 | 161 | 1.7 | 3.5 | 0.00 | 0.00 | 0.00 | 38 | 1005.5 |
| 20260504183904 | 82 | 161 | 1.7 | 3.5 | 0.00 | 0.00 | 0.00 | 38 | 1005.5 |
| 20260504183804 | 82 | 160 | 1.7 | 3.5 | 0.00 | 0.00 | 0.00 | 39 | 1005.5 |
| 20260504183705 | 82 | 161 | 1.7 | 3.5 | 0.00 | 0.00 | 0.00 | 39 | 1005.5 |
| 20260504183604 | 82 | 163 | 1.7 | 3.5 | 0.00 | 0.00 | 0.00 | 40 | 1005.5 |
| 20260504183505 | 82 | 164 | 1.7 | 3.5 | 0.00 | 0.00 | 0.00 | 41 | 1005.5 |
| 20260504183404 | 82 | 165 | 1.7 | 3.5 | 0.00 | 0.00 | 0.00 | 41 | 1005.4 |
| 20260504183205 | 81 | 179 | 1.7 | 3.5 | 0.00 | 0.00 | 0.00 | 40 | 1005.4 |
| 20260504183105 | 81 | 181 | 2.6 | 4.3 | 0.00 | 0.00 | 0.00 | 41 | 1005.4 |
| 20260504183004 | 81 | 183 | 2.6 | 6.1 | 0.00 | 0.00 | 0.00 | 39 | 1005.5 |
| 20260504182705 | 81 | 188 | 1.7 | 6.1 | 0.00 | 0.00 | 0.00 | 41 | 1005.6 |
| 20260504182605 | 81 | 185 | 1.7 | 6.1 | 0.00 | 0.00 | 0.00 | 39 | 1005.6 |
| 20260504182504 | 82 | 182 | 1.7 | 6.1 | 0.00 | 0.00 | 0.00 | 40 | 1005.5 |
| 20260504182304 | 82 | 172 | 2.6 | 6.1 | 0.00 | 0.00 | 0.00 | 38 | 1005.6 |
| 20260504182204 | 82 | 167 | 2.6 | 6.1 | 0.00 | 0.00 | 0.00 | 38 | 1005.6 |
| 20260504182105 | 82 | 167 | 1.7 | 6.1 | 0.00 | 0.00 | 0.00 | 38 | 1005.5 |
| 20260504182004 | 82 | 159 | 1.7 | 6.1 | 0.00 | 0.00 | 0.00 | 39 | 1005.5 |
| 20260504181904 | 82 | 158 | 1.7 | 5.2 | 0.00 | 0.00 | 0.00 | 39 | 1005.5 |
| 20260504181605 | 82 | 168 | 1.7 | 5.2 | 0.00 | 0.00 | 0.00 | 39 | 1005.6 |
| 20260504181505 | 82 | 170 | 1.7 | 4.3 | 0.00 | 0.00 | 0.00 | 40 | 1005.7 |
| 20260504181404 | 82 | 174 | 1.7 | 4.3 | 0.00 | 0.00 | 0.00 | 40 | 1005.7 |
| 20260504181304 | 82 | 182 | 1.7 | 4.3 | 0.00 | 0.00 | 0.00 | 40 | 1005.7 |
| 20260504181204 | 82 | 185 | 0.9 | 4.3 | 0.00 | 0.00 | 0.00 | 42 | 1005.6 |
| 20260504181104 | 82 | 186 | 0.9 | 4.3 | 0.00 | 0.00 | 0.00 | 41 | 1005.7 |
| 20260504181004 | 82 | 198 | 0.9 | 4.3 | 0.00 | 0.00 | 0.00 | 39 | 1005.7 |
| 20260504180904 | 82 | 214 | 1.7 | 4.3 | 0.00 | 0.00 | 0.00 | 39 | 1005.7 |
| 20260504180804 | 82 | 224 | 1.7 | 4.3 | 0.00 | 0.00 | 0.00 | 40 | 1005.6 |
| 20260504180704 | 82 | 224 | 1.7 | 4.3 | 0.00 | 0.00 | 0.00 | 41 | 1005.6 |
| 20260504180604 | 81 | 211 | 1.7 | 6.1 | 0.00 | 0.00 | 0.00 | 42 | 1005.6 |
| 20260504180504 | 81 | 202 | 1.7 | 6.1 | 0.00 | 0.00 | 0.00 | 42 | 1005.7 |
| 20260504180404 | 81 | 197 | 1.7 | 6.1 | 0.00 | 0.00 | 0.00 | 41 | 1005.6 |
| 20260504180304 | 80 | 191 | 1.7 | 6.1 | 0.00 | 0.00 | 0.00 | 39 | 1005.6 |
| 20260504180204 | 80 | 188 | 1.7 | 6.1 | 0.00 | 0.00 | 0.00 | 40 | 1005.7 |
| 20260504180004 | 81 | 193 | 1.7 | 6.1 | 0.00 | 0.00 | 0.00 | 39 | 1005.7 |
| 20260504175904 | 81 | 178 | 1.7 | 6.1 | 0.00 | 0.00 | 0.00 | 40 | 1005.8 |
| 20260504175804 | 81 | 170 | 1.7 | 6.1 | 0.00 | 0.00 | 0.00 | 40 | 1005.8 |
| 20260504175704 | 81 | 169 | 1.7 | 6.1 | 0.00 | 0.00 | 0.00 | 39 | 1005.7 |
| 20260504175605 | 81 | 168 | 1.7 | 5.2 | 0.00 | 0.00 | 0.00 | 40 | 1005.7 |
| 20260504175505 | 81 | 173 | 1.7 | 4.3 | 0.00 | 0.00 | 0.00 | 39 | 1005.7 |
| 20260504175405 | 81 | 182 | 1.7 | 4.3 | 0.00 | 0.00 | 0.00 | 40 | 1005.7 |
| 20260504175305 | 81 | 195 | 1.7 | 4.3 | 0.00 | 0.00 | 0.00 | 40 | 1005.7 |
| 20260504175205 | 81 | 197 | 1.7 | 4.3 | 0.00 | 0.00 | 0.00 | 40 | 1005.8 |
| 20260504175105 | 81 | 192 | 1.7 | 4.3 | 0.00 | 0.00 | 0.00 | 41 | 1005.8 |
| 20260504175005 | 81 | 192 | 1.7 | 4.3 | 0.00 | 0.00 | 0.00 | 41 | 1005.9 |
| 20260504174804 | 81 | 194 | 2.6 | 4.3 | 0.00 | 0.00 | 0.00 | 41 | 1005.8 |
| 20260504174704 | 81 | 194 | 2.6 | 4.3 | 0.00 | 0.00 | 0.00 | 41 | 1005.8 |
| 20260504174604 | 80 | 193 | 2.6 | 4.3 | 0.00 | 0.00 | 0.00 | 41 | 1005.9 |
| 20260504174504 | 80 | 194 | 1.7 | 4.3 | 0.00 | 0.00 | 0.00 | 41 | 1005.9 |
| 20260504174405 | 80 | 189 | 1.7 | 4.3 | 0.00 | 0.00 | 0.00 | 42 | 1005.8 |
| 20260504174305 | 80 | 181 | 2.6 | 4.3 | 0.00 | 0.00 | 0.00 | 43 | 1005.8 |
| 20260504174205 | 80 | 182 | 2.6 | 5.2 | 0.00 | 0.00 | 0.00 | 42 | 1005.9 |
| 20260504174105 | 80 | 183 | 2.6 | 5.2 | 0.00 | 0.00 | 0.00 | 43 | 1006.0 |
| 20260504174005 | 80 | 189 | 1.7 | 5.2 | 0.00 | 0.00 | 0.00 | 41 | 1005.9 |
| 20260504173905 | 80 | 185 | 1.7 | 5.2 | 0.00 | 0.00 | 0.00 | 42 | 1006.0 |
| 20260504173705 | 80 | 186 | 2.6 | 5.2 | 0.00 | 0.00 | 0.00 | 43 | 1006.0 |
| 20260504173604 | 80 | 193 | 2.6 | 6.1 | 0.00 | 0.00 | 0.00 | 43 | 1006.0 |
| 20260504173405 | 79 | 190 | 2.6 | 6.1 | 0.00 | 0.00 | 0.00 | 42 | 1006.0 |
| 20260504173305 | 79 | 192 | 2.6 | 6.1 | 0.00 | 0.00 | 0.00 | 41 | 1006.0 |
| 20260504173205 | 79 | 199 | 2.6 | 6.1 | 0.00 | 0.00 | 0.00 | 43 | 1006.0 |
| 20260504173104 | 79 | 203 | 1.7 | 6.1 | 0.00 | 0.00 | 0.00 | 43 | 1006.0 |
| 20260504173005 | 79 | 199 | 1.7 | 6.1 | 0.00 | 0.00 | 0.00 | 44 | 1006.0 |
| 20260504172804 | 79 | 198 | 1.7 | 6.1 | 0.00 | 0.00 | 0.00 | 43 | 1006.0 |
| 20260504172704 | 79 | 195 | 1.7 | 6.1 | 0.00 | 0.00 | 0.00 | 41 | 1006.0 |
| 20260504172604 | 79 | 188 | 1.7 | 4.3 | 0.00 | 0.00 | 0.00 | 43 | 1006.0 |
| 20260504172404 | 79 | 202 | 1.7 | 4.3 | 0.00 | 0.00 | 0.00 | 43 | 1006.0 |
| 20260504172305 | 79 | 200 | 1.7 | 4.3 | 0.00 | 0.00 | 0.00 | 43 | 1006.0 |
| 20260504172205 | 79 | 193 | 1.7 | 4.3 | 0.00 | 0.00 | 0.00 | 44 | 1006.0 |
| 20260504172105 | 79 | 187 | 1.7 | 4.3 | 0.00 | 0.00 | 0.00 | 44 | 1006.0 |
| 20260504171904 | 78 | 182 | 1.7 | 5.2 | 0.00 | 0.00 | 0.00 | 43 | 1006.1 |
| 20260504171805 | 78 | 183 | 1.7 | 5.2 | 0.00 | 0.00 | 0.00 | 44 | 1006.1 |
| 20260504171705 | 78 | 183 | 2.6 | 5.2 | 0.00 | 0.00 | 0.00 | 44 | 1006.1 |
| 20260504171606 | 78 | 178 | 2.6 | 5.2 | 0.00 | 0.00 | 0.00 | 45 | 1006.1 |
| 20260504171504 | 78 | 179 | 2.6 | 6.1 | 0.00 | 0.00 | 0.00 | 45 | 1006.0 |
| 20260504171405 | 78 | 176 | 2.6 | 6.1 | 0.00 | 0.00 | 0.00 | 45 | 1006.0 |
| 20260504171305 | 77 | 178 | 2.6 | 6.1 | 0.00 | 0.00 | 0.00 | 44 | 1005.9 |
| 20260504171204 | 77 | 176 | 2.6 | 6.1 | 0.00 | 0.00 | 0.00 | 45 | 1005.9 |
| 20260504170904 | 77 | 178 | 2.6 | 6.1 | 0.00 | 0.00 | 0.00 | 46 | 1006.0 |
| 20260504170804 | 77 | 179 | 2.6 | 6.1 | 0.00 | 0.00 | 0.00 | 45 | 1006.0 |
| 20260504170705 | 77 | 182 | 2.6 | 6.1 | 0.00 | 0.00 | 0.00 | 44 | 1006.0 |
| 20260504170604 | 77 | 190 | 2.6 | 6.1 | 0.00 | 0.00 | 0.00 | 44 | 1006.0 |
| 20260504170504 | 77 | 190 | 2.6 | 6.1 | 0.00 | 0.00 | 0.00 | 44 | 1006.0 |
| 20260504170405 | 77 | 191 | 2.6 | 6.1 | 0.00 | 0.00 | 0.00 | 44 | 1006.0 |
| 20260504170304 | 77 | 190 | 1.7 | 6.1 | 0.00 | 0.00 | 0.00 | 46 | 1006.0 |
| 20260504170204 | 77 | 188 | 1.7 | 6.1 | 0.00 | 0.00 | 0.00 | 46 | 1006.1 |
| 20260504160404 | 73 | 201 | 4.3 | 8.7 | 0.00 | 0.00 | 0.00 | 49 | 1005.6 |
| 20260504160304 | 73 | 198 | 4.3 | 8.7 | 0.00 | 0.00 | 0.00 | 49 | 1005.7 |
| 20260504160205 | 73 | 196 | 4.3 | 8.7 | 0.00 | 0.00 | 0.00 | 49 | 1005.6 |
| 20260504160104 | 73 | 196 | 4.3 | 9.6 | 0.00 | 0.00 | 0.00 | 49 | 1005.6 |
| 20260504151104 | 70 | 189 | 4.3 | 13.9 | 0.00 | 0.00 | 0.00 | 52 | 1005.9 |
| 20260504151004 | 70 | 186 | 5.2 | 13.9 | 0.00 | 0.00 | 0.00 | 52 | 1005.9 |
| 20260504150904 | 70 | 189 | 4.3 | 13.9 | 0.00 | 0.00 | 0.00 | 52 | 1006.0 |
| 20260504150804 | 70 | 191 | 4.3 | 13.9 | 0.00 | 0.00 | 0.00 | 52 | 1006.0 |
| 20260504150604 | 71 | 195 | 4.3 | 10.4 | 0.00 | 0.00 | 0.00 | 51 | 1006.0 |
| 20260504150504 | 71 | 198 | 4.3 | 12.2 | 0.00 | 0.00 | 0.00 | 52 | 1006.0 |
| 20260504150304 | 70 | 197 | 5.2 | 12.2 | 0.00 | 0.00 | 0.00 | 52 | 1006.0 |
| 20260504150205 | 70 | 198 | 5.2 | 12.2 | 0.00 | 0.00 | 0.00 | 52 | 1006.0 |
| 20260504141304 | 67 | 194 | 5.2 | 15.6 | 0.00 | 0.00 | 0.00 | 55 | 1006.2 |
| 20260504141204 | 67 | 192 | 5.2 | 15.6 | 0.00 | 0.00 | 0.00 | 56 | 1006.3 |
| 20260504141104 | 67 | 190 | 5.2 | 15.6 | 0.00 | 0.00 | 0.00 | 55 | 1006.3 |
| 20260504141005 | 67 | 190 | 5.2 | 15.6 | 0.00 | 0.00 | 0.00 | 55 | 1006.3 |
| 20260504140905 | 67 | 190 | 5.2 | 15.6 | 0.00 | 0.00 | 0.00 | 55 | 1006.3 |
| 20260504140805 | 67 | 190 | 5.2 | 15.6 | 0.00 | 0.00 | 0.00 | 55 | 1006.4 |
| 20260504140705 | 67 | 190 | 5.2 | 15.6 | 0.00 | 0.00 | 0.00 | 55 | 1006.3 |
| 20260504140605 | 67 | 190 | 4.3 | 15.6 | 0.00 | 0.00 | 0.00 | 55 | 1006.3 |
| 20260504140405 | 67 | 185 | 4.3 | 10.4 | 0.00 | 0.00 | 0.00 | 56 | 1006.2 |
| 20260504140304 | 66 | 185 | 4.3 | 10.4 | 0.00 | 0.00 | 0.00 | 56 | 1006.2 |
| 20260504140204 | 66 | 184 | 4.3 | 10.4 | 0.00 | 0.00 | 0.00 | 57 | 1006.3 |
| 20260504140104 | 66 | 185 | 4.3 | 10.4 | 0.00 | 0.00 | 0.00 | 57 | 1006.3 |
| 20260504130805 | 63 | 186 | 2.6 | 7.8 | 0.00 | 0.00 | 0.00 | 59 | 1006.4 |
| 20260504130705 | 63 | 184 | 2.6 | 7.8 | 0.00 | 0.00 | 0.00 | 60 | 1006.4 |
| 20260504130605 | 63 | 182 | 2.6 | 7.8 | 0.00 | 0.00 | 0.00 | 60 | 1006.4 |
| 20260504130405 | 63 | 185 | 2.6 | 7.8 | 0.00 | 0.00 | 0.00 | 60 | 1006.4 |
| 20260504130305 | 63 | 183 | 2.6 | 7.8 | 0.00 | 0.00 | 0.00 | 60 | 1006.3 |
| 20260504130205 | 63 | 182 | 3.5 | 7.8 | 0.00 | 0.00 | 0.00 | 60 | 1006.3 |
| 20260504130105 | 63 | 187 | 3.5 | 11.3 | 0.00 | 0.00 | 0.00 | 61 | 1006.2 |
| 20260504120304 | 61 | 181 | 3.5 | 11.3 | 0.00 | 0.00 | 0.00 | 61 | 1005.9 |
| 20260504110705 | 62 | 169 | 2.6 | 9.6 | 0.00 | 0.00 | 0.00 | 57 | 1006.1 |
| 20260504110605 | 62 | 173 | 2.6 | 9.6 | 0.00 | 0.00 | 0.00 | 57 | 1006.2 |
| 20260504110505 | 62 | 173 | 3.5 | 9.6 | 0.00 | 0.00 | 0.00 | 57 | 1006.2 |
| 20260504110405 | 62 | 172 | 3.5 | 9.6 | 0.00 | 0.00 | 0.00 | 57 | 1006.2 |
| 20260504110305 | 62 | 173 | 3.5 | 9.6 | 0.00 | 0.00 | 0.00 | 57 | 1006.2 |
| 20260504110205 | 62 | 173 | 3.5 | 9.6 | 0.00 | 0.00 | 0.00 | 57 | 1006.2 |
| 20260504110104 | 62 | 174 | 3.5 | 9.6 | 0.00 | 0.00 | 0.00 | 57 | 1006.3 |
| 20260504100505 | 64 | 177 | 3.5 | 11.3 | 0.00 | 0.00 | 0.00 | 53 | 1006.6 |
| 20260504100405 | 64 | 183 | 3.5 | 13.0 | 0.00 | 0.00 | 0.00 | 53 | 1006.6 |
| 20260504082004 | 66 | 167 | 2.6 | 7.8 | 0.00 | 0.00 | 0.00 | 50 | 1007.2 |
| 20260504081904 | 66 | 164 | 2.6 | 7.8 | 0.00 | 0.00 | 0.00 | 50 | 1007.2 |
| 20260504081705 | 66 | 168 | 2.6 | 7.8 | 0.00 | 0.00 | 0.00 | 50 | 1007.2 |
| 20260504081605 | 66 | 166 | 2.6 | 7.8 | 0.00 | 0.00 | 0.00 | 49 | 1007.2 |
| 20260504081505 | 66 | 166 | 2.6 | 7.8 | 0.00 | 0.00 | 0.00 | 50 | 1007.2 |
| 20260504081405 | 66 | 169 | 2.6 | 9.6 | 0.00 | 0.00 | 0.00 | 50 | 1007.2 |
| 20260504081305 | 66 | 171 | 2.6 | 9.6 | 0.00 | 0.00 | 0.00 | 49 | 1007.2 |
| 20260504081205 | 66 | 171 | 2.6 | 9.6 | 0.00 | 0.00 | 0.00 | 50 | 1007.3 |
| 20260504081105 | 66 | 169 | 2.6 | 9.6 | 0.00 | 0.00 | 0.00 | 49 | 1007.3 |
| 20260504081005 | 66 | 172 | 3.5 | 9.6 | 0.00 | 0.00 | 0.00 | 49 | 1007.3 |
| 20260504080904 | 66 | 173 | 3.5 | 9.6 | 0.00 | 0.00 | 0.00 | 49 | 1007.2 |
| 20260504080805 | 66 | 173 | 3.5 | 9.6 | 0.00 | 0.00 | 0.00 | 49 | 1007.3 |
| 20260504080704 | 66 | 174 | 3.5 | 9.6 | 0.00 | 0.00 | 0.00 | 49 | 1007.3 |
| 20260504080605 | 66 | 178 | 3.5 | 10.4 | 0.00 | 0.00 | 0.00 | 49 | 1007.3 |
| 20260504080505 | 66 | 178 | 3.5 | 10.4 | 0.00 | 0.00 | 0.00 | 49 | 1007.3 |
| 20260504080405 | 66 | 176 | 3.5 | 10.4 | 0.00 | 0.00 | 0.00 | 49 | 1007.3 |
| 20260504080304 | 66 | 172 | 3.5 | 10.4 | 0.00 | 0.00 | 0.00 | 49 | 1007.3 |
| 20260504080205 | 66 | 172 | 3.5 | 10.4 | 0.00 | 0.00 | 0.00 | 49 | 1007.3 |
| 20260504080105 | 66 | 175 | 3.5 | 10.4 | 0.00 | 0.00 | 0.00 | 49 | 1007.4 |
| 20260504070405 | 68 | 179 | 4.3 | 11.3 | 0.00 | 0.00 | 0.00 | 46 | 1007.9 |
| 20260504070305 | 68 | 178 | 5.2 | 11.3 | 0.00 | 0.00 | 0.00 | 46 | 1007.9 |
| 20260504070205 | 68 | 185 | 5.2 | 13.9 | 0.00 | 0.00 | 0.00 | 46 | 1007.9 |
| 20260504070105 | 68 | 186 | 5.2 | 13.9 | 0.00 | 0.00 | 0.00 | 46 | 1007.9 |
| 20260504060204 | 70 | 192 | 5.2 | 17.4 | 0.00 | 0.00 | 0.00 | 44 | 1008.2 |
| 20260504050704 | 71 | 181 | 4.3 | 13.9 | 0.00 | 0.00 | 0.00 | 42 | 1008.2 |
| 20260504050604 | 71 | 178 | 4.3 | 13.9 | 0.00 | 0.00 | 0.00 | 42 | 1008.2 |
| 20260504050504 | 71 | 181 | 5.2 | 12.2 | 0.00 | 0.00 | 0.00 | 42 | 1008.2 |
| 20260504050404 | 71 | 181 | 5.2 | 12.2 | 0.00 | 0.00 | 0.00 | 42 | 1008.2 |
| 20260504050304 | 71 | 181 | 5.2 | 12.2 | 0.00 | 0.00 | 0.00 | 42 | 1008.2 |
| 20260504050105 | 71 | 179 | 5.2 | 13.0 | 0.00 | 0.00 | 0.00 | 42 | 1008.2 |
| 20260504045705 | 71 | 181 | 5.2 | 14.8 | 0.00 | 0.00 | 0.00 | 41 | 1008.2 |
| 20260504045604 | 71 | 184 | 5.2 | 14.8 | 0.00 | 0.00 | 0.00 | 41 | 1008.3 |
| 20260504045504 | 71 | 185 | 5.2 | 14.8 | 0.00 | 0.00 | 0.00 | 41 | 1008.3 |
| 20260504045404 | 71 | 184 | 5.2 | 14.8 | 0.00 | 0.00 | 0.00 | 41 | 1008.2 |
| 20260504045304 | 71 | 183 | 5.2 | 14.8 | 0.00 | 0.00 | 0.00 | 41 | 1008.2 |
| 20260504045104 | 71 | 181 | 5.2 | 14.8 | 0.00 | 0.00 | 0.00 | 41 | 1008.1 |
| 20260504045005 | 71 | 184 | 6.1 | 14.8 | 0.00 | 0.00 | 0.00 | 41 | 1008.2 |
| 20260504044905 | 71 | 187 | 6.1 | 14.8 | 0.00 | 0.00 | 0.00 | 41 | 1008.2 |
| 20260504044805 | 71 | 184 | 6.1 | 13.9 | 0.00 | 0.00 | 0.00 | 40 | 1008.2 |
| 20260504044705 | 71 | 186 | 6.1 | 13.9 | 0.00 | 0.00 | 0.00 | 40 | 1008.2 |
| 20260504044604 | 71 | 185 | 6.1 | 13.9 | 0.00 | 0.00 | 0.00 | 40 | 1008.2 |
| 20260504044505 | 71 | 185 | 6.1 | 13.9 | 0.00 | 0.00 | 0.00 | 40 | 1008.2 |
| 20260504044404 | 71 | 184 | 6.1 | 13.9 | 0.00 | 0.00 | 0.00 | 40 | 1008.2 |
| 20260504044305 | 71 | 185 | 6.1 | 13.9 | 0.00 | 0.00 | 0.00 | 40 | 1008.2 |
| 20260504044205 | 71 | 185 | 5.2 | 13.9 | 0.00 | 0.00 | 0.00 | 40 | 1008.2 |
| 20260504044105 | 71 | 184 | 5.2 | 13.9 | 0.00 | 0.00 | 0.00 | 40 | 1008.2 |
| 20260504043904 | 71 | 179 | 5.2 | 13.9 | 0.00 | 0.00 | 0.00 | 40 | 1008.2 |
| 20260504043804 | 71 | 182 | 5.2 | 13.9 | 0.00 | 0.00 | 0.00 | 40 | 1008.2 |
| 20260504043705 | 71 | 179 | 5.2 | 11.3 | 0.00 | 0.00 | 0.00 | 40 | 1008.2 |
| 20260504043505 | 71 | 178 | 5.2 | 13.0 | 0.00 | 0.00 | 0.00 | 40 | 1008.2 |
| 20260504043305 | 71 | 181 | 5.2 | 14.8 | 0.00 | 0.00 | 0.00 | 39 | 1008.2 |
| 20260504043204 | 71 | 181 | 5.2 | 14.8 | 0.00 | 0.00 | 0.00 | 39 | 1008.2 |
| 20260504043004 | 71 | 183 | 5.2 | 14.8 | 0.00 | 0.00 | 0.00 | 39 | 1008.2 |
| 20260504042904 | 71 | 183 | 5.2 | 14.8 | 0.00 | 0.00 | 0.00 | 39 | 1008.2 |
| 20260504042805 | 71 | 182 | 5.2 | 14.8 | 0.00 | 0.00 | 0.00 | 39 | 1008.2 |
| 20260504042705 | 71 | 182 | 5.2 | 14.8 | 0.00 | 0.00 | 0.00 | 39 | 1008.2 |
| 20260504042604 | 71 | 181 | 4.3 | 14.8 | 0.00 | 0.00 | 0.00 | 39 | 1008.1 |
| 20260504042504 | 71 | 181 | 4.3 | 14.8 | 0.00 | 0.00 | 0.00 | 39 | 1008.2 |